Location: George Washington National Forest Helicopter Landing Site
(38.6463°N, 79.0851°W)
Time: 09:56:38
(UTC-04:00)

Tiros 1 despin weight - Pass Details

Date: 28 August 2019
Orbit: 594 x 642 km, 48.2° (Epoch: 21 September)

Event Time Altitude Azimuth Distance (km) Brightness Sun altitude
Rises 06:11:14 0° 284° (WNW) 2,879 - -6.6°
Exits shadow 06:13:14 - 271° (W) 2,296 ? -6.2°
Reaches altitude 10° 06:14:41 10° 257° (WSW) 1,981 ? -5.9°
Maximum altitude 06:16:46 13° 230° (SW) 1,790 ? -5.5°
Drops below altitude 10° 06:18:52 10° 202° (SSW) 1,989 ? -5.2°
Sets 06:22:22 0° 175° (S) 2,902 ? -4.5°
